Regional Weather Roundup
Issued by NWS Columbia, SC

Home | Current Version | Previous Version | Text Only | Print | Product List | Glossary On
Versions: 1 2 3 4 5 6 7 8 9 10 11 12 13 14 15 16 17 18 19 20 21 22 23 24 25 26 27 28 29 30 31 32 33 34 35 36 37 38 39 40 41 42 43 44 45 46 47 48 49 50
000
ASUS42 KCAE 031310
RWRCAE
REGIONAL WEATHER ROUNDUP
NATIONAL WEATHER SERVICE COLUMBIA SC
900 AM EDT TUE MAY 03 2016

NOTE: "FAIR" INDICATES FEW OR NO CLOUDS BELOW 12,000 FEET WITH NO
SIGNIFICANT WEATHER AND/OR OBSTRUCTIONS TO VISIBILITY.

NOT ALL STATIONS ARE QUALITY CONTROLLED BY THE NATIONAL
WEATHER SERVICE. USE DATA WITH CAUTION...ESPECIALLY
DEWPOINT OBSERVATIONS.

SCZ001>056-GAZ040-063>065-077-031400-
...UPSTATE SOUTH CAROLINA...

CITY           SKY/WX    TMP DP  RH WIND       PRES   REMARKS
ANDERSON       LGT RAIN  67  63  87 SW6       29.88R
LIBERTY        CLOUDY    64  63  95 W3        29.88R
SPARTANBURG    CLOUDY    64  63  94 SW5       29.86R
CLEMSON        LGT RAIN  66  64  93 VRB3      29.89R
GREENVILLE     CLOUDY    66  63  90 W9        29.89R
GREENWOOD      FAIR      70  65  84 SW12      29.89S
GREER          CLOUDY    67  64  90 W10       29.87R
ROCK HILL      CLOUDY    66  64  93 VRB3      29.87S
CHESTER        CLOUDY    64  64 100 CALM      29.87S FOG


...CENTRAL SOUTH CAROLINA...

CITY           SKY/WX    TMP DP  RH WIND       PRES   REMARKS
COLUMBIA APT   HVY RAIN  70  67  90 W8        29.87R FOG
COLUMBIA OWENS HVY RAIN  70  66  87 NW5       29.88S VSB 1
MCENTIRE ANGB  CLOUDY    68  66  94 W3        29.88R
ORANGEBURG     PTSUNNY   73  70  90 SW10      29.88R
SUMTER SHAW    PTSUNNY   68  65  92 W3        29.85S
NEWBERRY       FAIR      68  66  94 SW5       29.89S
AIKEN          CLOUDY    68  66  94 SW8       29.92S FOG
MANNING        FAIR      68  68 100 CALM      29.87S FOG
CAMDEN           N/A    N/A N/A N/A MISG        N/A
LANCASTER      FAIR      66  66 100 S3        29.87S
WINNSBORO      PTSUNNY   68  68 100 S7        29.87F


...EASTERN AND COASTAL SOUTH CAROLINA...

CITY           SKY/WX    TMP DP  RH WIND       PRES   REMARKS
MYRTLE BEACH   CLOUDY    73  64  73 W8        29.89R
N MYRTLE BCH   TSTM      68  65  90 N8        29.86F VSB 3/4
CONWAY         CLOUDY    68  66  94 CALM      29.88S
MARION         LGT RAIN  64  63  94 SW3       29.88R
HARTSVILLE     CLOUDY    64  63  94 SW3       29.87R
FLORENCE       CLOUDY    68  65  90 SW5       29.88R
DARLINGTON     CLOUDY    66  66 100 SW5       29.87S
CHARLESTON APT PTSUNNY   76  71  85 W9        29.86S
BEAUFORT       PTSUNNY   77  70  79 W10       29.88R


...EASTERN GEORGIA...

CITY           SKY/WX    TMP DP  RH WIND       PRES   REMARKS
AUGUSTA BUSH F PTSUNNY   71  69  93 W9        29.88R
AUGUSTA DANIEL CLOUDY    71  67  87 VRB3      29.89S
THOMSON        CLOUDY    70  70  99 W5        29.94R
WASHINGTON     PTSUNNY   68  64  88 CALM      29.89S
CLAXTON        PTSUNNY   73  72  98 SW3       29.91S
SYLVANIA       PTSUNNY   74  72  93 W6        29.90S
STATESBORO     PTSUNNY   76  74  95 W8        29.90S
SAVANNAH       PTSUNNY   75  69  81 W13       29.90R


...SOUTHERN NORTH CAROLINA...

CITY           SKY/WX    TMP DP  RH WIND       PRES   REMARKS
CHARLOTTE      CLOUDY    67  63  87 W5        29.87S
MONROE         CLOUDY    65  63  93 W8        29.86R
WADESBORO      CLOUDY   N/A N/A N/A SW3       29.85S
ROCKINGHAM     LGT RAIN  65  64  97 CALM      29.86S
RUTHERFORDTON  CLOUDY    64  64 100 NW3       29.89R
ASHEVILLE      PTSUNNY   61  57  87 N7        29.90S

$$



USA.gov is the U.S. government's official web portal to all federal, state and local government web resources and services.